SKYNET 5A

Last updated on Sun Nov 16 2025 00:03:40 GMT+0000 (Coordinated Universal Time)

1 30794U 07007B 25319.36572593 -.00000263 00000+0 00000+0 0 9997 2 30794 4.7554 76.3258 0004128 171.7324 33.5449 1.00270770 68557
UTC large
Height (km)
Speed (km/s)
/
Latitude / Longitude
Inclination (degrees)
Orbital Period (minutes)
Azimuth
Elevation
Range (km)
Doppler Factor

Next 0 passes for location: London (51.5072 / 0.1276)

Sorry there are no passes over London.